Flag for Belgium Weather past 2 weeks in Leuven, Belgium

39 °F

Partly cloudy.

Feels Like: 30 °F
Forecast: 41 / 45 °F
Wind: 16 mph from Southwest

Location: Brussels National Airport

Current Time: Nov 27, 2015 at 11:49:51 PM

Latest Report: Nov 27, 2015 at 10:50 PM

Visibility: N/A

Pressure: 29.77 "Hg

Humidity: 87%

Dew point: 36 °F

Location of LeuvenLocation

Historic Weather in Leuven — Graph


Leuven temperature yesterday

Maximum temperature yesterday: 50 °F (at 3:50 PM)
Minimum temperature yesterday: 36 °F (at 5:20 AM)
Average temperature yesterday: 41 °F

Past Weeks' High & Low Weather Summary

High61 °F (Nov 15, 1:50 PM)100% (Nov 17, 1:20 PM)30.33 "Hg (Nov 17, 1:20 PM)
Low30 °F (Nov 23, 8:20 AM)11% (Nov 16, 5:20 PM)29.39 "Hg (Nov 21, 12:20 PM)
Average46 °F83%29.93 "Hg
* Reported Nov 12 10:20 PM — Nov 27 10:20 PM, Leuven, Weather by CustomWeather, © 2015

Note: Actual official high and low records may vary slightly from our data, if they occured in-between our weather recording intervals... More about our weather records


Leuven weather history for previous 24 hours

Time TempWeatherWind HumidityBarometerVisibility
10:20 PM
Fri, Nov 27
37 °FPassing clouds.16 mph93%29.80 "Hg6 mi
9:50 PM37 °FPartly cloudy.20 mph87%29.80 "HgN/A
9:20 PM37 °FPassing clouds.20 mph87%29.80 "HgN/A
8:50 PM37 °FPassing clouds.15 mph87%29.83 "HgN/A
8:20 PM37 °FPassing clouds.14 mph87%29.83 "HgN/A
7:50 PM37 °FPassing clouds.15 mph87%29.83 "HgN/A
7:20 PM39 °FPassing clouds.14 mph81%29.86 "HgN/A
6:50 PM39 °FPassing clouds.14 mph87%29.86 "HgN/A
6:20 PM39 °FPassing clouds.12 mph87%29.86 "HgN/A
5:50 PM41 °FPassing clouds.12 mph81%29.89 "HgN/A
5:20 PM41 °FPassing clouds.13 mph81%29.89 "HgN/A
4:50 PM41 °FPassing clouds.13 mph81%29.89 "HgN/A
4:20 PM41 °FPartly sunny.10 mph87%29.92 "HgN/A
3:50 PM43 °FPartly sunny.10 mph81%29.92 "HgN/A
3:20 PM43 °FPartly sunny.10 mph81%29.92 "HgN/A
2:50 PM43 °FPartly sunny.9 mph81%29.95 "HgN/A
2:20 PM43 °FPartly sunny.10 mph81%29.95 "HgN/A
1:50 PM43 °FPartly sunny.12 mph81%29.95 "HgN/A
1:20 PM43 °FPartly sunny.12 mph81%29.95 "HgN/A
12:50 PM43 °FPartly sunny.13 mph81%29.98 "HgN/A
12:20 PM43 °FPartly sunny.13 mph81%30.01 "HgN/A
11:50 AM43 °FPartly sunny.13 mph81%30.01 "HgN/A
11:20 AM41 °FPartly sunny.12 mph87%30.04 "HgN/A
10:50 AM41 °FPartly sunny.13 mph87%30.04 "HgN/A
10:20 AM41 °FPartly sunny.13 mph87%30.04 "HgN/A
9:50 AM39 °FPartly sunny.9 mph87%30.04 "HgN/A
9:20 AM39 °FPartly sunny.12 mph87%30.04 "HgN/A
8:50 AM39 °FPartly sunny.10 mph87%30.07 "HgN/A
8:20 AM37 °FPartly sunny.12 mph87%30.07 "HgN/A
7:50 AM36 °FPassing clouds.12 mph93%30.07 "HgN/A
7:20 AM36 °FClear.10 mph93%30.07 "Hg10 mi
6:50 AM36 °FClear.10 mph93%30.07 "Hg10 mi
6:20 AM36 °FClear.10 mph93%30.07 "Hg10 mi
5:50 AM36 °FClear.7 mph93%30.09 "Hg10 mi
4:50 AM36 °FClear.8 mph93%30.09 "Hg10 mi
4:20 AM36 °FClear.9 mph93%30.09 "Hg10 mi
3:50 AM36 °FClear.8 mph93%30.12 "Hg5 mi
3:20 AM36 °FClear.8 mph93%30.12 "Hg5 mi
2:50 AM36 °FClear.7 mph93%30.12 "Hg4 mi
2:20 AM36 °FClear.6 mph93%30.15 "Hg5 mi
1:50 AM34 °FClear.5 mph100%30.15 "Hg5 mi
1:20 AM36 °FClear.6 mph93%30.15 "Hg5 mi
12:50 AM36 °FClear.7 mph93%30.15 "Hg6 mi
12:20 AM36 °FClear.6 mph93%30.15 "Hg10 mi
11:50 PM
Thu, Nov 26
36 °FClear.6 mph93%30.15 "Hg10 mi
11:20 PM36 °FClear.6 mph93%30.15 "Hg10 mi
Weather by CustomWeather, © 2015

See weather overviewHow to use our weather pages